TimePST,TemperatureF,Dew PointF,Humidity,Sea Level PressureIn,VisibilityMPH,Wind Direction,Wind SpeedMPH,Gust SpeedMPH,PrecipitationIn,Events,Conditions,WindDirDegrees,DateUTC
12:09 AM,68.0,53.6,60,30.01,10.0,SSW,9.2,-,N/A,,Mostly Cloudy,210,2012-12-18 08:09:00
12:39 AM,69.8,53.6,56,30.00,10.0,SSW,11.5,-,N/A,,Mostly Cloudy,210,2012-12-18 08:39:00
12:53 AM,69.1,54.0,58,29.98,10.0,SW,15.0,-,N/A,,Mostly Cloudy,220,2012-12-18 08:53:00
1:23 AM,69.8,53.6,56,29.98,10.0,SW,12.7,-,N/A,,Overcast,220,2012-12-18 09:23:00
1:53 AM,71.1,54.0,55,29.95,10.0,SW,10.4,-,N/A,,Mostly Cloudy,220,2012-12-18 09:53:00
2:27 AM,71.6,53.6,53,29.95,10.0,SSW,10.4,-,N/A,,Overcast,200,2012-12-18 10:27:00
2:53 AM,72.0,55.0,55,29.94,2.0,SW,10.4,-,0.02,Rain,Rain,220,2012-12-18 10:53:00
3:12 AM,69.8,55.4,60,29.95,2.5,West,9.2,-,0.08,Rain,Rain,270,2012-12-18 11:12:00
3:16 AM,69.8,55.4,60,29.94,4.0,WNW,8.1,-,0.08,Rain,Light Rain,290,2012-12-18 11:16:00
3:34 AM,71.6,55.4,57,29.94,1.8,NW,11.5,-,0.08,Rain,Light Rain,310,2012-12-18 11:34:00
3:53 AM,66.9,54.0,63,29.91,2.0,NW,11.5,-,0.08,,Haze,310,2012-12-18 11:53:00
4:02 AM,68.0,53.6,60,29.92,4.0,WNW,9.2,-,N/A,,Haze,300,2012-12-18 12:02:00
4:12 AM,69.8,53.6,56,29.92,1.8,WNW,10.4,-,N/A,,Haze,300,2012-12-18 12:12:00
4:23 AM,69.8,53.6,56,29.92,0.8,WNW,9.2,-,N/A,,Haze,300,2012-12-18 12:23:00
4:29 AM,69.8,53.6,56,29.92,2.0,WNW,9.2,-,N/A,,Haze,300,2012-12-18 12:29:00
4:37 AM,69.8,53.6,56,29.91,10.0,WNW,9.2,-,N/A,,Overcast,290,2012-12-18 12:37:00
4:53 AM,69.1,53.1,57,29.89,10.0,WNW,8.1,-,N/A,,Overcast,290,2012-12-18 12:53:00
5:35 AM,71.6,53.6,53,29.91,9.0,West,9.2,-,N/A,,Mostly Cloudy,270,2012-12-18 13:35:00
5:42 AM,71.6,53.6,53,29.92,10.0,West,10.4,-,N/A,,Scattered Clouds,270,2012-12-18 13:42:00
5:53 AM,57.9,52.0,81,29.90,7.0,West,10.4,-,N/A,,Mostly Cloudy,270,2012-12-18 13:53:00
6:53 AM,59.7,53.1,79,29.91,2.5,NW,13.8,23.0,0.01,Rain,Rain,310,2012-12-18 14:53:00
7:10 AM,57.2,53.6,88,29.91,1.2,WNW,13.8,-,0.01,Rain,Light Rain,300,2012-12-18 15:10:00
7:16 AM,57.2,53.6,88,29.91,4.0,NW,16.1,-,0.01,Rain,Light Rain,310,2012-12-18 15:16:00
7:24 AM,57.2,53.6,88,29.91,4.0,NW,15.0,-,0.01,Rain,Light Rain,310,2012-12-18 15:24:00
7:34 AM,57.2,53.6,88,29.91,6.0,NW,16.1,-,0.01,Rain,Light Rain,320,2012-12-18 15:34:00
7:41 AM,57.2,53.6,88,29.91,6.0,NW,19.6,25.3,0.01,,Mostly Cloudy,320,2012-12-18 15:41:00
7:53 AM,57.9,53.1,84,29.91,7.0,NW,17.3,-,0.01,,Mostly Cloudy,320,2012-12-18 15:53:00
8:40 AM,64.4,51.8,64,29.91,7.0,NW,19.6,-,0.00,,Mostly Cloudy,310,2012-12-18 16:40:00
8:53 AM,59.7,48.9,67,29.94,7.0,NW,20.7,-,0.00,,Mostly Cloudy,320,2012-12-18 16:53:00
9:53 AM,61.5,46.0,57,29.93,7.0,WNW,25.3,33.4,N/A,,Mostly Cloudy,300,2012-12-18 17:53:00
10:53 AM,59.2,43.0,55,29.93,7.0,WNW,26.5,36.8,N/A,,Scattered Clouds,300,2012-12-18 18:53:00
11:53 AM,59.7,42.1,52,29.91,7.0,WNW,26.5,38.0,N/A,,Scattered Clouds,300,2012-12-18 19:53:00
12:53 PM,62.1,41.0,46,29.90,10.0,WNW,32.2,43.7,N/A,,Partly Cloudy,300,2012-12-18 20:53:00
1:04 PM,62.6,42.8,48,29.90,7.0,WNW,28.8,43.7,N/A,,Partly Cloudy,300,2012-12-18 21:04:00
1:53 PM,58.3,39.9,50,29.91,7.0,WNW,31.1,40.3,N/A,,Partly Cloudy,300,2012-12-18 21:53:00
2:53 PM,58.3,41.0,53,29.90,7.0,WNW,28.8,47.2,N/A,,Partly Cloudy,290,2012-12-18 22:53:00
3:53 PM,59.0,39.9,49,29.91,7.0,WNW,33.4,46.0,N/A,,Partly Cloudy,300,2012-12-18 23:53:00
4:53 PM,57.0,39.0,51,29.92,10.0,WNW,29.9,47.2,N/A,,Clear,290,2012-12-19 00:53:00
5:53 PM,57.0,35.1,44,29.94,10.0,WNW,31.1,43.7,N/A,,Clear,300,2012-12-19 01:53:00
6:53 PM,57.0,37.0,47,29.96,10.0,WNW,33.4,43.7,N/A,,Clear,300,2012-12-19 02:53:00
7:32 PM,57.2,39.2,51,30.00,10.0,WNW,28.8,44.9,N/A,,Mostly Cloudy,300,2012-12-19 03:32:00
7:53 PM,57.0,39.0,51,30.00,10.0,WNW,29.9,42.6,N/A,,Scattered Clouds,300,2012-12-19 03:53:00
8:53 PM,57.0,37.9,49,30.01,10.0,NW,26.5,38.0,N/A,,Mostly Cloudy,310,2012-12-19 04:53:00
9:53 PM,57.0,37.0,47,30.03,10.0,NW,25.3,33.4,N/A,,Clear,310,2012-12-19 05:53:00
10:53 PM,57.0,34.0,42,30.05,10.0,NW,25.3,34.5,N/A,,Clear,310,2012-12-19 06:53:00
11:53 PM,55.9,30.9,39,30.07,10.0,NW,27.6,34.5,N/A,,Clear,320,2012-12-19 07:53:00